Weather Roundup
Issued by NWS

Home | Current Version | Previous Version | Text Only | Print | Product List | Glossary On
Versions: 1 2 3 4 5 6 7 8 9 10 11 12 13 14 15 16 17 18 19 20 21 22 23 24 25 26 27 28 29 30 31 32 33 34 35 36 37 38 39 40 41 42 43 44 45 46 47 48 49 50
097
NZUS93 KARX 191710
HRRWXR

CURRENT HOURLY OBSERVATIONS ACROSS
MUCH OF THE UPPER MISSISSIPPI VALLEY
NATIONAL WEATHER SERVICE LA CROSSE WI
1200 PM CDT THU OCT 19 2017


...SOUTHEAST MINNESOTA...


CITY           SKY/WX    TMP DP  RH WIND       PRES   REMARKS
ROCHESTER      CLOUDY    67  33  28 S10       30.13S
ROCHESTER/MAYO FAIR      64  29  27 SE12      30.11F
WINONA         MOSUNNY   59  41  51 E3        30.12F
AUSTIN         MOSUNNY   61  34  36 S9        30.12S
ALBERT LEA     NOT AVBL
DODGE CENTER   MOSUNNY   66  27  22 S10       30.10F
PRESTON        MOSUNNY   64  33  31 S8        30.14S
OWATONNA       CLOUDY    64  36  34 S10       30.09S
FARIBAULT      CLOUDY    64  34  32 S9        30.08F
$$

...ELSEWHERE IN MINNESOTA...


CITY           SKY/WX    TMP DP  RH WIND       PRES   REMARKS
MINNEAPOLIS    MOSUNNY   63  35  35 S8        30.06F
INTNL FALLS    SUNNY     56  23  27 S5        29.93S
DULUTH         SUNNY     60  30  32 SW8       30.01R
RED WING       CLOUDY    61  34  36 SE6       30.08F
REDWOOD FALLS  SUNNY     68  31  25 S23       30.01F
MANKATO        SUNNY     64  33  31 S10       30.08F
WORTHINGTON    SUNNY     65  35  33 S17G23    30.05F
FAIRMONT       SUNNY     62  32  32 S18       30.09S
$$

...SOUTHWEST WISCONSIN...


CITY           SKY/WX    TMP DP  RH WIND       PRES   REMARKS
LA CROSSE      CLOUDY    62  36  37 S9        30.13S
PRAIRIE DU CHI SUNNY     62  36  37 SW5       30.16S
BOSCOBEL       SUNNY     67  36  31 CALM      30.17S
LONE ROCK      MOSUNNY   63  38  39 CALM      30.17S
PLATTEVILLE    CLOUDY    65  31  27 SE3       30.18S
FORT MC COY    CLOUDY    64  31  29 E3        30.14S
CAMP DOUGLAS   PTSUNNY   64  34  32 S5        30.14S
MAUSTON-NEW LI CLOUDY    64  31  28 CALM      30.15S
VIROQUA        FAIR      64  33  32 SE7       30.16R
WIS DELLS      CLOUDY    63  28  26 CALM      30.16S
$$

...ELSEWHERE IN WISCONSIN...


CITY           SKY/WX    TMP DP  RH WIND       PRES   REMARKS
MILWAUKEE      PTSUNNY   66  27  23 VRB6      30.18R
MADISON        PTSUNNY   65  29  25 NW3       30.17S
GREEN BAY      SUNNY     63  30  28 W10       30.13R
EAU CLAIRE     SUNNY     61  35  37 SW6       30.10F
BLACK RVR FLS  FAIR      64  29  26 SE3       30.12F
MEDFORD        CLOUDY    58  30  34 SW6       30.11S
WAUSAU         CLOUDY    60  29  30 SW12      30.10S
WIS RAPIDS     CLOUDY    63  34  33 SW9       30.15S
MARSHFIELD     CLOUDY    62  30  29 SW8       30.12S
RICE LAKE      SUNNY     62  28  27 S10       30.11R
$$

...NORTHEAST IOWA...


CITY           SKY/WX    TMP DP  RH WIND       PRES   REMARKS
WATERLOO       SUNNY     64  34  32 SE10      30.15S
DUBUQUE        SUNNY     64  29  26 E7        30.19S
DECORAH        SUNNY     66  30  26 S9G15     30.14R
MASON CITY     CLOUDY    64  32  30 SE15      30.14S
CHARLES CITY   CLOUDY    66  28  24 SE9G15    30.14S
OELWEIN        SUNNY     68  28  22 E12       30.16S
$$

...ELSEWHERE IN IOWA...


CITY           SKY/WX    TMP DP  RH WIND       PRES   REMARKS
DES MOINES     PTSUNNY   68  36  30 SE10      30.12F
IOWA CITY      SUNNY     69  34  27 E8        30.18S
FORT DODGE     SUNNY     64  35  34 SE12      30.12F
MARSHALLTOWN   SUNNY     65  34  31 SE10      30.14F
CEDAR RAPIDS   SUNNY     67  31  26 SE13      30.16S
$$

...NORTHERN ILLINOIS...


CITY           SKY/WX    TMP DP  RH WIND       PRES   REMARKS
CHICAGO-OHARE  MOSUNNY   66  26  22 VRB3      30.19S
CHICAGO-MIDWAY MOSUNNY   67  25  20 NE5       30.20R
MOLINE         SUNNY     69  39  33 E10       30.18R
ROCKFORD       PTSUNNY   65  28  24 VRB3      30.20S
PEORIA         SUNNY     67  52  58 E3        30.19R
$$

NOTE: "FAIR" INDICATES FEW OR NO CLOUDS BELOW 12,000 FEET WITH NO
SIGNIFICANT WEATHER AND/OR OBSTRUCTIONS TO VISIBILITY. WIND
SPEEDS ARE IN MILES-PER-HOUR.




USA.gov is the U.S. government's official web portal to all federal, state and local government web resources and services.